Flag for Czech Republic Weather past 2 weeks in Liberec, Czech Republic

Now
49 °F

Light rain. Overcast.


Feels Like: 46 °F
Forecast: 37 / 41 °F
Wind: 7 mph from Southwest

Location: Liberec

Current Time: Dec 19, 2014 at 3:43:33 PM

Latest Report: Dec 19, 2014 at 3:00 PM


Visibility: 14 mi

Pressure: 29.83 "Hg

Humidity: 83%

Dew point: 44 °F

Location of LiberecLocation

Historic Weather in Liberec — Graph

°F

Liberec temperature yesterday

Maximum temperature yesterday: 47 °F (at 9:00 PM)
Minimum temperature yesterday: 37 °F (at 12:00 AM)
Average temperature yesterday: 43 °F

Past Weeks' High & Low Weather Summary

 TemperatureHumidityPressure
High51 °F (Dec 19, 4:00 AM)100% (Dec 6, 6:00 AM)30.49 "Hg (Dec 6, 6:00 AM)
Low21 °F (Dec 9, 7:00 AM)58% (Dec 4, 3:00 PM)29.66 "Hg (Dec 12, 9:00 PM)
Average38 °F89%30.02 "Hg
* Reported Dec 4 2:00 PM — Dec 19 2:00 PM, Liberec, Weather by CustomWeather, © 2014

Note: Actual official high and low records may vary slightly from our data, if they occured in-between our weather recording intervals... More about our weather records

Advertising

Liberec weather history for previous 24 hours

 ConditionsComfort  
Time TempWeatherWind HumidityBarometerVisibility
2:00 PM
Dec 19
49 °FRain. Overcast.9 mph83%29.84 "Hg7 mi
1:00 PM50 °FOvercast.10 mph80%29.84 "Hg19 mi
12:00 PM50 °FOvercast.12 mph81%29.86 "Hg16 mi
11:00 AM50 °FOvercast.10 mph82%29.87 "Hg19 mi
10:00 AM50 °FPartly sunny.3 mph84%29.90 "Hg16 mi
9:00 AM49 °FOvercast.7 mph87%29.90 "Hg16 mi
8:00 AM49 °FLight rain. Overcast.7 mph89%29.90 "Hg7 mi
7:00 AM50 °FLight rain. Overcast.7 mph90%29.89 "Hg4 mi
6:00 AM51 °FDrizzle. Overcast.7 mph89%29.88 "Hg12 mi
5:00 AM51 °FDrizzle. Overcast.7 mph90%29.88 "Hg3 mi
4:00 AM51 °FRain showers. Overcast.7 mph92%29.87 "Hg4 mi
3:00 AM51 °FCool.3 mph97%29.88 "Hg12 mi
2:00 AM48 °FRain showers. Overcast.2 mph97%29.88 "Hg8 mi
1:00 AM48 °FRain showers. Overcast.1 mph95%29.88 "Hg2 mi
12:00 AM48 °FDrizzle. Overcast.2 mph97%29.88 "Hg4 mi
11:00 PM
Dec 18
46 °FRain. Overcast.2 mph97%29.88 "Hg3 mi
10:00 PM47 °FLight rain. Overcast.3 mph93%29.88 "Hg7 mi
9:00 PM47 °FLight rain. Overcast.6 mph93%29.88 "Hg4 mi
8:00 PM47 °FDrizzle. Overcast.5 mph92%29.88 "Hg4 mi
7:00 PM47 °FPassing clouds.6 mph91%29.88 "Hg11 mi
6:00 PM47 °FDrizzle. Low clouds.5 mph93%29.89 "Hg7 mi
5:00 PM46 °FDrizzle. Overcast.3 mph98%29.90 "Hg3 mi
4:00 PM45 °FDrizzle. Low clouds.3 mph97%29.90 "Hg1 mi
3:00 PM45 °FLow clouds.2 mph96%29.91 "Hg7 mi
Weather by CustomWeather, © 2014

See weather overviewHow to use our weather pages